Shirley, NY

11:58 AM EDT on March 27, 2017 (GMT -0400)
Brookhaven

Weather History for KHWV - October, 2012

Change the Weather History Date:

Tuesday, October 23, 2012

  Actual Average (KISP) Record (KISP)
Temperature  
Mean Temperature 58 °F -  
Max Temperature 70 °F 58 °F 75 °F (1995)
Min Temperature 46 °F 41 °F 30 °F (1997)
Degree Days  
Heating Degree Days 8    
Growing Degree Days 8 (Base 50)    
Moisture  
Dew Point 49 °F    
Average Humidity 79    
Maximum Humidity 93    
Minimum Humidity 40    
Precipitation  
Precipitation 0.05 in - - ()
Sea Level Pressure  
Sea Level Pressure 30.09 in    
Wind  
Wind Speed 2 mph (West)    
Max Wind Speed 7 mph    
Max Gust Speed -    
Visibility 10 miles    
Events Rain    
Averages and records for this station are not official NWS values.
T = Trace of Precipitation, MM = Missing Value Source: NWS Daily Summary

Daily Weather History Graph

Daily Weather History Graph

Search for Another Location

Airport or City:

Trip Planner

Search our weather history database for the weather conditions in past years. The results will help you decide how hot, cold, wet, or windy it might be!

Date:

Astronomy

Oct. 23, 2012 Rise Set
Actual Time 7:12 AM EDT 5:58 PM EDT
Civil Twilight 6:44 AM EDT 6:26 PM EDT
Nautical Twilight 6:12 AM EDT 6:58 PM EDT
Astronomical Twilight 5:40 AM EDT 7:30 PM EDT
Moon 2:42 PM EDT (10/23) 12:58 AM EDT (10/23)
Length of Visible Light 11h 42m
Length of Day
10h 46m
Waxing Gibbous, 66% of the Moon is Illuminated
Oct 23
Waxing Gibbous
Oct 29
Full
Nov 6
Last Quarter
Nov 13
New
Nov 20
First Quarter

Hourly Weather History & Observations

Time (EDT) Temp. Dew Point Humidity Pressure Visibility Wind Dir Wind Speed Gust Speed Precip Events Conditions
12:56 AM 52.0 °F 44.1 °F 74% 30.07 in 10.0 mi North 3.5 mph - N/A   Clear
1:56 AM 50.0 °F 44.1 °F 80% 30.07 in 10.0 mi NW 3.5 mph - N/A   Clear
2:56 AM 50.0 °F 45.0 °F 83% 30.06 in 10.0 mi Calm Calm - N/A   Clear
3:56 AM 48.0 °F 44.1 °F 86% 30.06 in 10.0 mi Calm Calm - N/A   Clear
4:56 AM 48.9 °F 44.1 °F 83% 30.08 in 10.0 mi West 3.5 mph - N/A   Clear
5:56 AM 46.9 °F 43.0 °F 86% 30.09 in 10.0 mi Calm Calm - N/A   Clear
6:56 AM 46.0 °F 43.0 °F 89% 30.11 in 10.0 mi Calm Calm - N/A   Clear
7:56 AM 48.0 °F 45.0 °F 89% 30.12 in 10.0 mi Calm Calm - N/A   Clear
8:56 AM 55.9 °F 51.1 °F 84% 30.14 in 10.0 mi Calm Calm - N/A   Clear
11:56 AM 69.1 °F 44.1 °F 40% 30.11 in 10.0 mi Calm Calm - N/A   Clear
12:56 PM 68.0 °F 46.0 °F 45% 30.09 in 10.0 mi SSW 6.9 mph - N/A   Partly Cloudy
1:56 PM 64.0 °F 48.9 °F 58% 30.09 in 10.0 mi SSW 4.6 mph - N/A   Overcast
2:56 PM 64.9 °F 46.9 °F 52% 30.09 in 10.0 mi Calm Calm - N/A   Overcast
3:56 PM 60.1 °F 55.0 °F 83% 30.09 in 10.0 mi Calm Calm - 0.00 in Rain Light Rain
4:56 PM 61.0 °F 54.0 °F 78% 30.08 in 10.0 mi Calm Calm - 0.00 in   Overcast
5:56 PM 59.0 °F 54.0 °F 83% 30.08 in 10.0 mi Calm Calm - N/A   Mostly Cloudy
6:56 PM 59.0 °F 54.0 °F 83% 30.09 in 10.0 mi Calm Calm - N/A   Overcast
7:56 PM 57.9 °F 54.0 °F 87% 30.09 in 10.0 mi Calm Calm - N/A   Overcast
8:56 PM 57.0 °F 55.0 °F 93% 30.10 in 9.0 mi Calm Calm - 0.02 in Rain Light Rain
9:56 PM 57.0 °F 54.0 °F 89% 30.11 in 10.0 mi Calm Calm - 0.02 in   Overcast
10:56 PM 57.0 °F 54.0 °F 89% 30.12 in 10.0 mi Calm Calm - 0.01 in   Overcast
11:56 PM 57.0 °F 55.0 °F 93% 30.11 in 8.0 mi Calm Calm - 0.00 in Rain Light Rain